Maple Creek, Saskatchewan

5:55 PM CST on May 27, 2017 (GMT -0600)
Maple Creek

Weather History for CWMQ - August, 2014

Change the Weather History Date:

Tuesday, August 12, 2014

  Actual Average Record
Temperature  
Mean Temperature 70 °F -  
Max Temperature 88 °F - - ()
Min Temperature 52 °F - - ()
Cooling Degree Days 5    
Growing Degree Days 20 (Base 50)    
Moisture  
Dew Point 49 °F    
Average Humidity 48    
Maximum Humidity 86    
Minimum Humidity 16    
Precipitation  
Precipitation 0.00 in - - ()
Sea Level Pressure  
Sea Level Pressure 30.05 in    
Wind  
Wind Speed 5 mph ()    
Max Wind Speed 13 mph    
Max Gust Speed 21 mph    
T = Trace of Precipitation, MM = Missing Value Source: Averaged Metar Reports

Daily Weather History Graph

Daily Weather History Graph

Search for Another Location

Airport or City:

Trip Planner

Search our weather history database for the weather conditions in past years. The results will help you decide how hot, cold, wet, or windy it might be!

Date:

Astronomy

Aug. 12, 2014 Rise Set
Actual Time 6:03 AM CST 8:41 PM CST
Civil Twilight 5:27 AM CST 9:17 PM CST
Nautical Twilight 4:40 AM CST 10:03 PM CST
Astronomical Twilight 3:45 AM CST 10:58 PM CST
Moon 9:28 PM CST (8/12) 8:43 AM CST (8/12)
Length of Visible Light 15h 50m
Length of Day
14h 37m
Waning Gibbous, 94% of the Moon is Illuminated
Aug 12
Waning Gibbous
Aug 17
Last Quarter
Aug 25
New
Sep 2
First Quarter
Sep 8
Full

Hourly Weather History & Observations

Time (CST) Temp. Dew Point Humidity Pressure Visibility Wind Dir Wind Speed Gust Speed Precip Events Conditions
12:00 AM 60 °F 50 °F 61% 30.13 in - East 1.2 mph - -  
12:00 AM 59.5 °F 50.0 °F 71% 30.13 in - East 1.2 mph - N/A   Unknown
1:00 AM 55.9 °F 48.0 °F 75% 30.13 in - ENE 3.5 mph - N/A   Unknown
2:00 AM 56.5 °F 50.7 °F 81% 30.12 in - NE 2.3 mph - N/A   Unknown
3:00 AM 55.4 °F 49.3 °F 80% 30.12 in - North 2.3 mph - N/A   Unknown
4:00 AM 53.8 °F 49.6 °F 86% 30.11 in - Calm Calm - N/A   Unknown
6:00 AM 52 °F 48 °F 81% 30.11 in - Calm Calm - -  
7:00 AM 54.7 °F 50.0 °F 84% 30.11 in - SW 1.2 mph - N/A   Unknown
8:00 AM 65.1 °F 55.2 °F 70% 30.09 in - East 1.2 mph - N/A   Unknown
9:00 AM 78.1 °F 47.7 °F 34% 30.09 in - ESE 9.2 mph - N/A   Unknown
10:00 AM 81.0 °F 46.9 °F 30% 30.08 in - ESE 12.7 mph - N/A   Unknown
12:00 PM 84 °F 46 °F 16% 30.05 in - ESE 12.7 mph - -  
12:00 PM 84.2 °F 45.5 °F 26% 30.05 in - ESE 12.7 mph 18.4 mph N/A   Unknown
1:00 PM 85.5 °F 45.7 °F 25% 30.04 in - ESE 12.7 mph - N/A   Unknown
2:00 PM 85.8 °F 46.6 °F 25% 30.02 in - East 12.7 mph 19.6 mph N/A   Unknown
3:00 PM 85.8 °F 45.5 °F 24% 30.01 in - East 12.7 mph 19.6 mph N/A   Unknown
4:00 PM 88.2 °F 48.0 °F 25% 30.00 in - ESE 12.7 mph 20.7 mph N/A   Unknown
5:00 PM 86.0 °F 48.9 °F 28% 29.99 in - ESE 11.5 mph 18.4 mph N/A   Unknown
6:00 PM 85 °F 49 °F 18% 29.98 in - ESE 12.7 mph - -  
6:00 PM 85.1 °F 48.6 °F 28% 29.98 in - ESE 12.7 mph 19.6 mph N/A   Unknown
7:00 PM 82.2 °F 50.5 °F 33% 29.99 in - ESE 11.5 mph - N/A   Unknown
8:00 PM 77.7 °F 52.0 °F 41% 29.97 in - East 8.1 mph - N/A   Unknown
9:00 PM 70.2 °F 52.3 °F 53% 29.97 in - East 4.6 mph - N/A   Unknown
10:00 PM 65.7 °F 53.4 °F 65% 29.98 in - East 3.5 mph - N/A   Unknown